Find Starlink 31666

NORAD ID: 59572 Int'l Des: 2024-076 Owner: SPXS Country: US Constellation: starlink operational
LEOCIRCULAR

現在のビュー

3D地球を読み込み中...

About Starlink 31666

Starlink 31666 (NORAD 59572) is a starlink constellation satellite (v2 mini) launched Apr 23, 2024 by SPXS of US. It operates in LEO, CIRCULAR orbit with a mass of 730.00 kg.

次回通過

Passes for default location (London). Set your location on the main map for personalized predictions.

高度履歴

Loading altitude history...

軌道要素

1 59572U 24076J 26237.71640110 .00008876 00000-0 32647-3 0 9991
2 59572 42.9988 127.4346 0001875 257.4152 102.6490 15.28101365132431
Epoch: Aug 25, 2026 • Age: 8 hours

現在のステータス

高度 485.8 km
遠地点 / 近地点 N/A
速度 7.63 km/s
衛星直下点 43.03°N, 135.22°W
打ち上げ日 Apr 23, 2024
運用期間 2.3 years
タイプ internet

技術仕様

分類 Payload
質量 730.00 kg
乾燥質量 700.00 kg
総質量 730.00 kg
長さ 0.30 m
直径 4.10 m
スパン 29.00 m
形状 Box + pan
製造者 SPXS
バスタイプ Starlink V2M
フェーズステータス In Orbit
所有者/国 SPXS/US

Most Searched